CYSBCYWA

Guest
Details From CYSB - SUDBURY
To CYWA - PETAWAWA
Flight Number -
Tags generated
Created
Modified
Stats Distance 150 nm / 278 km
Max Altitude 19,600 ft / 5,974 m
Waypoints 3
Social Downloads 0
Likes 0
Share VATSIM

Download

Looking for another format? Having issues loading an existing format? Contact us
Advertisement - Login to hide

Notes

Basic altitude profile: - Ascent Rate: 2500ft/min - Ascent Speed: 250kts - Cruise Altitude: 35000ft - Cruise Speed: 420kts - Descent Rate: 1500ft/min - Descent Speed: 250kts Options: - Use NATs: yes - Use PACOTS: yes - Use low airways: yes - Use high airways: yes

Route

CYSB YYB CYWA

ID Type Via Altitude Latitude Longitude Leg Dist Tot Dist Heading (true) Name
O CYSB APT - 0 ft / 0 m 46.62632˚ -80.79819˚ - 0 nm - SUDBURY
YYB VOR - 19,600 ft / 5,974 m 46.36392˚ -79.43642˚ 58 nm 58 nm 105° / 106° NORTH BAY VOR-DME
O CYWA APT - 0 ft / 0 m 45.95194˚ -77.31903˚ 91 nm 149 nm 105° / 106° PETAWAWA

Altitude Profile

Advertisement - Login to hide

CYSB

Details ICAO CYSB (YSB)
Name SUDBURY
Region Canada
Timezone America/Toronto (UTC-4.0)
Stats Elevation 1,141 ft / 348 m (AMSL)
Location 46.626320° -80.798194°
Runways 2
Magnetic Variation 10.294° W

METAR

CYSB 251500Z 24012KT 15SM -SHRA BKN032 OVC100 18/13 A2981 RMK CU5AC3 SLP098 DENSITY ALT 1900FT

Decode

TAF

TAF CYSB 251338Z 2514/2602 25010KT P6SM BKN040 TEMPO 2514/2520 4SM -SHRA BR BKN020 PROB30 2515/2519 2SM TSRA BR BKN015 BKN030CB FM252000 23010KT P6SM BKN030 TEMPO 2520/2602 BKN020 PROB30 2600/2602 2SM TSRA BR BKN015 BKN030CB RMK NXT FCST BY 252000Z

Decode

Departure Runways

ID Width Length Bearing (true) Bearing (mag) Surface Threshold Offset Overrun Length
04 200 ft / 61 m 6,574 ft / 2,004 m 28.46° 38.75° Asphalt 0 ft / 0 m 1,000 ft / 305 m
12 150 ft / 46 m 5,009 ft / 1,527 m 106.45° 116.74° Asphalt 0 ft / 0 m 600 ft / 183 m
22 200 ft / 61 m 6,574 ft / 2,004 m 208.47° 218.76° Asphalt 0 ft / 0 m 1,000 ft / 305 m
30 150 ft / 46 m 5,009 ft / 1,527 m 286.47° 296.76° Asphalt 0 ft / 0 m 400 ft / 122 m

CYWA

Details ICAO CYWA (YWA)
Name PETAWAWA
Region Canada
Timezone America/Toronto (UTC-4.0)
Stats Elevation 427 ft / 130 m (AMSL)
Location 45.951943° -77.319029°
Runways 1
Magnetic Variation 12.439° W

METAR

CYWA 251500Z 29008KT 240V310 15SM FEW025 OVC200 22/16 A2979 RMK CU2CI6 DA1726FT SLP088

Decode

TAF

TAF AMD CYWA 251410Z 2514/2524 28008KT P6SM FEW015 SCT060 OVC200 TEMPO 2514/2516 5SM -SHRA BR SCT015 OVC060 FM251600 28010KT P6SM BKN030 OVC180 TEMPO 2516/2524 P6SM -SHRA PROB30 2520/2524 VRB15G25KT 2SM TSRA BR OVC030CB RMK FCST BASED ON AUTO OBS 251800-252400Z. NXT FCST BY 251800Z

Decode

Destination Runways

ID Width Length Bearing (true) Bearing (mag) Surface Threshold Offset Overrun Length
17 75 ft / 23 m 3,835 ft / 1,169 m 147.78° 160.22° Grass 0 ft / 0 m 0 ft / 0 m
35 75 ft / 23 m 3,835 ft / 1,169 m 327.79° 340.23° Grass 0 ft / 0 m 0 ft / 0 m